TimeEST,TemperatureF,Dew PointF,Humidity,Sea Level PressureIn,VisibilityMPH,Wind Direction,Wind SpeedMPH,Gust SpeedMPH,PrecipitationIn,Events,Conditions,WindDirDegrees,DateUTC
12:15 AM,31.6,17.6,56,30.10,10.0,NW,5.8,-,N/A,,Overcast,310,2013-12-07 05:15:00
12:35 AM,31.1,16.5,55,30.10,10.0,NW,4.6,-,N/A,,Overcast,310,2013-12-07 05:35:00
12:55 AM,31.1,16.5,55,30.09,10.0,NNW,4.6,-,N/A,,Overcast,330,2013-12-07 05:55:00
1:15 AM,30.7,15.3,53,30.09,10.0,NW,4.6,-,N/A,,Overcast,310,2013-12-07 06:15:00
1:35 AM,30.7,15.3,53,30.09,10.0,NW,4.6,-,N/A,,Mostly Cloudy,310,2013-12-07 06:35:00
1:55 AM,30.6,13.8,50,30.09,10.0,WNW,5.8,-,N/A,,Mostly Cloudy,300,2013-12-07 06:55:00
2:15 AM,30.2,14.0,51,30.10,10.0,NW,4.6,-,N/A,,Overcast,310,2013-12-07 07:15:00
2:35 AM,29.8,14.2,52,30.10,10.0,NW,5.8,-,N/A,,Mostly Cloudy,320,2013-12-07 07:35:00
2:55 AM,29.8,14.0,52,30.10,10.0,WNW,4.6,-,N/A,,Mostly Cloudy,290,2013-12-07 07:55:00
3:15 AM,29.3,13.5,52,30.11,10.0,West,4.6,-,N/A,,Mostly Cloudy,280,2013-12-07 08:15:00
3:35 AM,29.3,12.9,51,30.12,10.0,West,8.1,-,N/A,,Mostly Cloudy,270,2013-12-07 08:35:00
3:55 AM,29.3,12.7,50,30.12,10.0,West,6.9,-,N/A,,Overcast,270,2013-12-07 08:55:00
4:15 AM,29.1,13.1,51,30.13,10.0,West,5.8,-,N/A,,Mostly Cloudy,280,2013-12-07 09:15:00
4:35 AM,28.9,11.8,49,30.14,10.0,West,8.1,-,N/A,,Mostly Cloudy,270,2013-12-07 09:35:00
4:55 AM,28.4,11.8,50,30.14,10.0,West,6.9,-,N/A,,Scattered Clouds,270,2013-12-07 09:55:00
5:15 AM,28.0,10.8,48,30.15,10.0,WNW,10.4,-,N/A,,Mostly Cloudy,290,2013-12-07 10:15:00
5:35 AM,28.0,10.0,47,30.16,10.0,WSW,6.9,-,N/A,,Mostly Cloudy,250,2013-12-07 10:35:00
5:55 AM,27.7,9.7,47,30.15,10.0,SW,5.8,-,N/A,,Overcast,220,2013-12-07 10:55:00
6:15 AM,27.3,9.9,48,30.17,10.0,West,6.9,-,N/A,,Overcast,280,2013-12-07 11:15:00
6:35 AM,27.1,10.4,49,30.17,10.0,WNW,6.9,-,N/A,,Overcast,290,2013-12-07 11:35:00
6:55 AM,26.6,10.8,51,30.18,10.0,NW,3.5,-,N/A,,Overcast,310,2013-12-07 11:55:00
7:15 AM,26.6,11.8,54,30.18,10.0,WSW,4.6,-,N/A,,Overcast,240,2013-12-07 12:15:00
7:35 AM,26.6,11.3,53,30.19,10.0,WSW,4.6,-,N/A,,Overcast,250,2013-12-07 12:35:00
7:55 AM,26.6,12.0,54,30.20,10.0,WSW,5.8,-,N/A,,Overcast,250,2013-12-07 12:55:00
8:15 AM,26.4,11.7,54,30.21,10.0,West,8.1,-,N/A,,Overcast,280,2013-12-07 13:15:00
8:35 AM,26.6,11.5,53,30.22,10.0,West,4.6,-,N/A,,Overcast,270,2013-12-07 13:35:00
8:55 AM,26.4,11.1,53,30.22,10.0,West,5.8,16.1,N/A,,Overcast,280,2013-12-07 13:55:00
9:15 AM,26.1,9.1,49,30.23,10.0,West,12.7,18.4,N/A,,Mostly Cloudy,280,2013-12-07 14:15:00
9:35 AM,26.2,9.0,48,30.24,10.0,WNW,12.7,19.6,N/A,,Mostly Cloudy,290,2013-12-07 14:35:00
9:55 AM,26.4,9.0,48,30.24,10.0,West,15.0,24.2,N/A,,Scattered Clouds,280,2013-12-07 14:55:00
10:15 AM,26.6,8.1,46,30.24,10.0,West,16.1,26.5,N/A,,Scattered Clouds,280,2013-12-07 15:15:00
10:35 AM,28.0,7.9,43,30.24,10.0,West,11.5,27.6,N/A,,Mostly Cloudy,280,2013-12-07 15:35:00
10:55 AM,28.2,7.9,42,30.24,10.0,WNW,16.1,24.2,N/A,,Overcast,290,2013-12-07 15:55:00
11:15 AM,28.0,7.2,41,30.24,10.0,WSW,8.1,25.3,N/A,,Overcast,250,2013-12-07 16:15:00
11:35 AM,27.5,6.3,41,30.24,10.0,West,12.7,25.3,N/A,,Overcast,270,2013-12-07 16:35:00
11:55 AM,27.5,5.2,39,30.23,10.0,NW,11.5,16.1,N/A,,Overcast,320,2013-12-07 16:55:00
12:15 PM,27.5,4.6,38,30.23,10.0,WSW,4.6,18.4,N/A,,Overcast,240,2013-12-07 17:15:00
12:35 PM,27.9,4.3,37,30.24,10.0,West,16.1,24.2,N/A,,Scattered Clouds,270,2013-12-07 17:35:00
12:55 PM,28.6,3.7,35,30.23,10.0,WNW,12.7,25.3,N/A,,Clear,290,2013-12-07 17:55:00
1:15 PM,29.3,5.2,36,30.23,10.0,West,13.8,20.7,N/A,,Mostly Cloudy,280,2013-12-07 18:15:00
1:35 PM,28.2,4.1,36,30.23,10.0,West,19.6,28.8,N/A,,Scattered Clouds,270,2013-12-07 18:35:00
1:55 PM,28.0,4.5,37,30.23,10.0,West,18.4,25.3,N/A,,Clear,270,2013-12-07 18:55:00
2:15 PM,27.3,4.1,37,30.24,10.0,West,16.1,25.3,N/A,,Clear,270,2013-12-07 19:15:00
2:35 PM,27.5,3.9,37,30.24,10.0,West,13.8,23.0,N/A,,Clear,280,2013-12-07 19:35:00
2:55 PM,26.6,3.4,37,30.25,10.0,WNW,13.8,27.6,N/A,,Scattered Clouds,290,2013-12-07 19:55:00
3:15 PM,26.6,3.7,38,30.26,10.0,West,15.0,24.2,N/A,,Clear,270,2013-12-07 20:15:00
3:35 PM,26.2,4.3,39,30.27,10.0,WNW,8.1,-,N/A,,Scattered Clouds,290,2013-12-07 20:35:00
3:55 PM,25.9,4.3,40,30.28,10.0,West,12.7,21.9,N/A,,Scattered Clouds,280,2013-12-07 20:55:00
4:15 PM,25.5,4.6,41,30.29,10.0,WNW,8.1,23.0,N/A,,Scattered Clouds,290,2013-12-07 21:15:00
4:35 PM,25.0,4.5,42,30.29,10.0,NW,10.4,21.9,N/A,,Scattered Clouds,320,2013-12-07 21:35:00
4:55 PM,24.8,4.6,42,30.31,10.0,Calm,Calm,-,N/A,,Scattered Clouds,0,2013-12-07 21:55:00
5:15 PM,24.6,5.5,44,30.32,10.0,NNW,4.6,-,N/A,,Scattered Clouds,330,2013-12-07 22:15:00
5:35 PM,24.4,5.9,45,30.32,10.0,WNW,5.8,-,N/A,,Mostly Cloudy,290,2013-12-07 22:35:00
5:55 PM,24.3,5.7,45,30.32,10.0,NNW,5.8,-,N/A,,Mostly Cloudy,330,2013-12-07 22:55:00
6:15 PM,24.1,5.4,45,30.33,10.0,West,5.8,17.3,N/A,,Scattered Clouds,270,2013-12-07 23:15:00
6:35 PM,23.9,5.0,44,30.33,10.0,NW,10.4,-,N/A,,Clear,310,2013-12-07 23:35:00
6:55 PM,23.7,5.5,46,30.33,10.0,WNW,8.1,-,N/A,,Clear,300,2013-12-07 23:55:00
7:15 PM,23.7,5.2,45,30.34,10.0,WNW,10.4,-,N/A,,Clear,290,2013-12-08 00:15:00
7:35 PM,23.9,5.4,45,30.35,10.0,WNW,6.9,-,N/A,,Scattered Clouds,300,2013-12-08 00:35:00
7:55 PM,23.9,4.8,44,30.35,10.0,WNW,6.9,-,N/A,,Scattered Clouds,290,2013-12-08 00:55:00
8:15 PM,23.7,5.2,45,30.35,10.0,WNW,4.6,-,N/A,,Mostly Cloudy,300,2013-12-08 01:15:00
8:35 PM,23.7,5.4,46,30.35,10.0,WNW,6.9,-,N/A,,Mostly Cloudy,300,2013-12-08 01:35:00
8:55 PM,23.9,5.2,45,30.36,10.0,WNW,4.6,-,N/A,,Mostly Cloudy,290,2013-12-08 01:55:00
9:15 PM,23.9,5.5,46,30.37,10.0,WNW,6.9,-,N/A,,Overcast,290,2013-12-08 02:15:00
9:35 PM,23.9,5.7,46,30.37,10.0,West,9.2,-,N/A,,Overcast,280,2013-12-08 02:35:00
9:55 PM,23.9,5.9,46,30.37,10.0,WNW,11.5,16.1,N/A,,Overcast,300,2013-12-08 02:55:00
10:15 PM,23.9,5.7,46,30.38,10.0,West,10.4,17.3,N/A,,Overcast,280,2013-12-08 03:15:00
10:35 PM,23.9,5.4,45,30.39,10.0,WNW,8.1,-,N/A,,Overcast,290,2013-12-08 03:35:00
10:55 PM,23.9,4.8,44,30.40,10.0,WNW,11.5,17.3,N/A,,Overcast,300,2013-12-08 03:55:00
11:15 PM,23.9,5.0,44,30.41,10.0,West,5.8,-,N/A,,Overcast,280,2013-12-08 04:15:00
11:35 PM,23.7,5.0,45,30.41,10.0,WNW,5.8,18.4,N/A,,Overcast,290,2013-12-08 04:35:00
11:55 PM,23.5,5.2,46,30.41,10.0,WNW,8.1,-,N/A,,Overcast,300,2013-12-08 04:55:00